This demonstration page uses our WeatherBlox Daily Observations layout. Learn more.

Left ArrowRight Arrow

34.74481, -87.66753

Hourly Observations for June 6, 2017

Temp ( °F °C ) Dew Point ( °F °C ) Humidity (%) Winds ( mph kmh ) Pressure ( in mb ) Visibility ( mi km ) Precip ( " mm )
12:53 am 00:53 Cloudy 72 22.2 69 20.6 91 91 Calm 29.80 1009 10 16 0.00 0.00
1:53 am 01:53 Mostly Cloudy 72 22.2 69 20.6 91 91 NNE 3 6 29.79 1009 10 16 0.00 0.00
2:53 am 02:53 Mostly Clear 72 22.2 69 20.6 91 91 Calm 29.78 1008 10 16 0.00 0.00
3:53 am 03:53 Clear 72 22.2 69 20.6 91 91 ENE 3 6 29.78 1008 10 16 0.00 0.00
4:04 am 04:04 Partly Cloudy 72 22.2 69 20.6 91 91 Calm 29.80 1009 10 16 0.00 0.00
4:24 am 04:24 Mostly Cloudy 72 22.2 69 20.6 91 91 ENE 3 6 29.80 1009 10 16 0.00 0.00
4:53 am 04:53 Cloudy with Mist and Fog 72 22.2 70 21.1 94 94 ENE 3 6 29.79 1009 4 6 0.00 0.00
5:25 am 05:25 Cloudy 72 22.2 69 20.6 91 91 Calm 29.83 1010 10 16 0.00 0.00
5:36 am 05:36 Cloudy 72 22.2 69 20.6 91 91 Calm 29.83 1010 10 16 0.00 0.00
5:44 am 05:44 Mostly Cloudy 72 22.2 69 20.6 91 91 Calm 29.83 1010 10 16 0.00 0.00
5:53 am 05:53 Cloudy 72 22.2 69 20.6 91 91 Calm 29.80 1009 10 16 0.00 0.00
6:33 am 06:33 Cloudy 72 22.2 69 20.6 91 91 E 3 6 29.83 1010 10 16 0.00 0.00
6:53 am 06:53 Mostly Cloudy 72 22.2 69 20.6 91 91 Calm 29.81 1010 10 16 0.00 0.00
7:12 am 07:12 Mostly Cloudy 72 22.2 69 20.6 91 91 Calm 29.83 1010 10 16 0.00 0.00
7:28 am 07:28 Mostly Cloudy 73 22.8 69 20.6 87 87 Calm 29.83 1010 10 16 0.00 0.00
7:53 am 07:53 Cloudy 74 23.3 69 20.6 85 85 Calm 29.82 1010 10 16 0.00 0.00
8:05 am 08:05 Mostly Cloudy 74 23.3 70 21.1 88 88 Calm 29.83 1010 10 16 0.00 0.00
8:53 am 08:53 Cloudy 75 23.9 70 21.1 84 84 Calm 29.82 1010 10 16 0.00 0.00
9:13 am 09:13 Cloudy 76 24.4 70 21.1 82 82 Calm 29.83 1010 10 16 0.00 0.00
9:22 am 09:22 Cloudy 76 24.4 70 21.1 82 82 ENE 3 6 29.83 1010 10 16 0.00 0.00
9:53 am 09:53 Mostly Cloudy 78 25.6 69 20.6 74 74 ENE 5 7 29.82 1010 10 16 0.00 0.00
10:09 am 10:09 Partly Cloudy 80 26.7 69 20.6 69 69 VRB 5 7 29.83 1010 10 16 0.00 0.00
10:38 am 10:38 Mostly Cloudy 79 26.1 69 20.6 72 72 ENE 8 13 29.83 1010 10 16 0.00 0.00
10:50 am 10:50 Mostly Cloudy 81 27 68 20 66 66 ENE 8 13 29.83 1010 10 16 0.00 0.00
10:53 am 10:53 Partly Cloudy 80 26.7 68 20 67 67 VRB 6 9 29.81 1010 10 16 0.00 0.00
11:53 am 11:53 Sunny 82 27.8 67 19.4 60 60 NE 7 11 29.80 1009 10 16 0.00 0.00
12:53 pm 12:53 Mostly Sunny 83 28.3 67 19.4 59 59 NE 5 7 29.79 1009 10 16 0.00 0.00
1:53 pm 13:53 Partly Cloudy 83 28.3 67 19.4 59 59 ENE 6 9 29.79 1009 10 16 0.00 0.00
2:53 pm 14:53 Sunny 82 27.8 65 18.3 56 56 ENE 5 7 29.77 1008 10 16 0.00 0.00
3:53 pm 15:53 Sunny 82 27.8 67 19.4 60 60 E 6 9 29.76 1008 10 16 0.00 0.00
4:53 pm 16:53 Sunny 83 28.3 67 19.4 59 59 VRB 5 7 29.75 1007 10 16 0.00 0.00
5:53 pm 17:53 Sunny 82 27.8 66 18.9 58 58 ENE 3 6 29.74 1007 10 16 0.00 0.00
6:53 pm 18:53 Cloudy 78 25.6 64 17.8 62 62 NNE 8 13 29.77 1008 10 16 0.00 0.00
7:53 pm 19:53 Cloudy 76 24.4 65 18.3 69 69 VRB 5 7 29.78 1009 10 16 0.00 0.00
8:53 pm 20:53 Cloudy 75 23.9 65 18.3 71 71 VRB 5 7 29.81 1009 10 16 0.00 0.00
9:53 pm 21:53 Cloudy 75 23.9 65 18.3 71 71 NE 8 13 29.83 1010 10 16 0.00 0.00
10:53 pm 22:53 Clear 74 23.3 62 16.7 67 67 NE 8 13 29.83 1010 10 16 0.00 0.00
11:53 pm 23:53 Clear 72 22.2 59 15 64 64 ENE 9 15 29.84 1011 10 16 0.00 0.00

Powered by AerisWeather